[[{"header":{"parameterUnit":"m.s-1","parameterCategory":1,"la1":30.2991,"la2":30.254,"lo1":-89.0895,"lo2":-89.0444,"dy":0.0017,"dx":0.0017,"nx":28,"ny":28,"refTime":"2024-05-11T21:00:00:Z","depth":0,"parameterNumber":2,"parameterNumberName":"U-component_of_WINDS"},"data":[0,0,0,0,0,0,0,0,0,0,0,0,0,0,0,0,0,0,0,0,0,0,0,0,0,0,0,0,0,0,0,0,0,0,0,0,0,0,0,0,0,0,0,0,0,0,0,0,0,0,0,0,0,0,0,0,0,0,-1.5764,-1.5766,0,-1.5942,-1.5945,-1.5947,-1.6057,-1.6057,-1.6058,-1.6058,-1.6246,-1.625,-1.6255,0,0,0,0,0,0,0,0,0,0,0,0,0,-1.5523,-1.5527,-1.5764,-1.5766,-1.5768,-1.5942,-1.5945,-1.5947,-1.6056,-1.6057,-1.6058,-1.6058,-1.6245,-1.625,-1.6255,0,0,0,0,0,0,0,0,0,0,0,0,0,-1.5657,-1.5528,-1.5763,-1.5844,-1.5853,-1.5942,-1.5945,-1.5948,-1.6056,-1.6057,-1.6058,-1.6059,-1.6243,-1.6249,-1.6256,-1.6281,0,0,-1.6277,-1.628,0,0,0,0,0,0,0,0,-1.5649,-1.5666,-1.583,-1.5838,-1.5848,-1.5978,-1.5929,-1.606,-1.6056,-1.5979,-1.6058,-1.6059,-1.6157,-1.617,-1.6202,-1.629,-1.6298,-1.6277,-1.6281,-1.6284,-1.6286,0,0,0,0,0,0,0,-1.564,-1.5659,-1.5835,-1.5832,-1.5843,-1.5873,-1.5893,-1.5954,-1.6061,-1.5986,-1.5994,-1.6014,-1.6162,-1.6196,-1.6208,-1.63,-1.6277,-1.6283,-1.6287,-1.629,-1.6418,-1.6417,0,0,0,0,0,0,-1.5617,-1.565,-1.5829,-1.584,-1.5749,-1.5876,-1.5899,-1.5936,-1.6061,-1.6081,-1.6013,-1.6018,-1.6184,-1.62,-1.6215,-1.6252,-1.6284,-1.629,-1.6294,-1.6419,-1.6418,-1.6417,0,0,0,0,0,0,-1.5611,-1.5632,-1.5822,-1.5747,-1.5774,-1.5879,-1.592,-1.5939,-1.5972,-1.6081,-1.6101,-1.6027,-1.6185,-1.6205,-1.6263,-1.626,-1.6293,-1.63,-1.6419,-1.6418,-1.6418,-1.6326,0,0,0,0,0,0,-1.5604,-1.5629,-1.5638,-1.5747,-1.5777,-1.5866,-1.592,-1.5942,-1.5983,-1.5992,-1.61,-1.6118,-1.6187,-1.6253,-1.627,-1.627,-1.6305,-1.642,-1.6419,-1.6418,-1.633,-1.6322,-1.6316,0,0,0,0,0,-1.5595,-1.5607,-1.5638,-1.5659,-1.5791,-1.5865,-1.5883,-1.596,-1.5982,-1.5993,-1.6063,-1.6115,-1.6257,-1.6258,-1.6278,-1.628,-1.6421,-1.6419,-1.6418,-1.6333,-1.6324,-1.6316,0,0,0,0,0,0,-1.5497,-1.5622,-1.5659,-1.5705,-1.5773,-1.5883,-1.59,-1.5948,-1.6012,-1.6018,-1.6113,-1.6137,-1.6185,-1.6239,-1.6237,-1.6311,-1.6345,-1.6348,-1.6274,-1.6266,-1.6259,-1.6245,-1.631,0,0,0,0,0,-1.548,-1.5529,-1.5636,-1.5667,-1.5699,-1.5793,-1.5829,-1.5882,-1.5957,-1.5987,-1.6062,-1.6134,-1.6195,-1.6234,-1.6296,-1.6339,-1.6364,-1.635,-1.6343,-1.6336,-1.6338,-1.6365,-1.636,-1.6413,-1.6413,-1.6413,0,0,-1.5448,-1.5522,-1.5547,-1.5649,-1.5709,-1.5758,-1.5817,-1.5867,-1.5905,-1.5996,-1.6054,-1.6111,-1.6199,-1.6249,-1.6275,-1.6295,-1.6329,-1.6335,-1.6329,-1.6334,-1.6363,-1.6358,-1.6353,-1.6412,-1.6412,-1.6412,0,0,-1.5413,-1.5473,-1.5506,-1.5563,-1.5651,-1.5714,-1.5721,-1.5824,-1.5865,-1.5925,-1.5994,-1.6042,-1.6145,-1.6205,-1.6248,-1.6236,-1.6286,-1.6254,-1.6216,-1.6241,-1.6237,-1.6234,-1.623,-1.6227,-1.6254,-1.6254,-1.6254,0,-1.5361,-1.5436,-1.5517,-1.5562,-1.5606,-1.5688,-1.5723,-1.5775,-1.588,-1.5909,-1.593,-1.6061,-1.6126,-1.6191,-1.6188,-1.622,-1.6233,-1.6241,-1.6231,-1.6228,-1.6227,-1.6224,-1.6222,-1.625,-1.625,-1.6251,-1.6251,0,-1.5369,-1.542,-1.5436,-1.5532,-1.5578,-1.5617,-1.5705,-1.5742,-1.5792,-1.5852,-1.5913,-1.5994,-1.6074,-1.6094,-1.6143,-1.6166,-1.6176,-1.6212,-1.6249,-1.6216,-1.6214,-1.6214,-1.6243,-1.6245,-1.6246,-1.6247,0,0,-1.5277,-1.5417,-1.5421,-1.5466,-1.5569,-1.5612,-1.5656,-1.5732,-1.5762,-1.5832,-1.5872,-1.5957,-1.5991,-1.6041,-1.6098,-1.612,-1.6105,-1.6155,-1.6158,-1.6142,-1.6136,-1.6108,-1.6105,-1.6139,-1.6139,-1.614,-1.6129,0,-1.5257,-1.5338,-1.5411,-1.5466,-1.5515,-1.5594,-1.5633,-1.5701,-1.5759,-1.5811,-1.5876,-1.5935,-1.5975,-1.6006,-1.6031,-1.6101,-1.6105,-1.6103,-1.6179,-1.618,-1.6154,-1.6105,-1.6075,-1.6061,-1.6129,-1.6129,-1.6129,0,-1.5245,-1.5309,-1.5367,-1.5465,-1.5489,-1.5522,-1.5598,-1.5646,-1.5725,-1.5766,-1.5821,-1.5881,-1.5933,-1.5964,-1.6037,-1.6034,-1.607,-1.6109,-1.6111,-1.6121,-1.6152,-1.6113,-1.6059,-1.6056,-1.6129,-1.6129,-1.6129,0,-1.5172,-1.5273,-1.5321,-1.5357,-1.5473,-1.5494,-1.5544,-1.5624,-1.5666,-1.5733,-1.5761,-1.5834,-1.5874,-1.593,-1.6009,-1.6024,-1.6075,-1.6112,-1.6111,-1.6109,-1.6118,-1.6116,-1.6068,-1.6141,-1.6141,-1.6141,-1.6141,0,-1.5142,-1.5175,-1.529,-1.5319,-1.5359,-1.5444,-1.5482,-1.5539,-1.561,-1.5653,-1.5727,-1.5767,-1.5868,-1.5921,-1.5983,-1.6035,-1.6053,-1.6088,-1.6104,-1.6081,-1.6077,-1.6106,-1.6109,-1.614,-1.614,-1.6141,-1.6141,0,-1.5068,-1.5146,-1.5203,-1.5307,-1.5334,-1.5359,-1.5449,-1.5482,-1.5544,-1.5598,-1.5616,-1.5714,-1.5779,-1.5863,-1.5956,-1.5998,-1.6043,-1.6068,-1.6015,-1.6024,-1.6018,-1.6018,-1.5987,-1.5988,-1.6059,-1.6058,-1.6057,0,-1.5043,-1.507,-1.5177,-1.521,-1.5256,-1.5309,-1.5351,-1.5437,-1.5478,-1.557,-1.5592,-1.5663,-1.5724,-1.5825,-1.5906,-1.5977,-1.6005,-1.5989,-1.6016,-1.5992,-1.6005,-1.6002,-1.6005,-1.5982,-1.5981,-1.598,-1.5979,0,-1.4992,-1.5029,-1.5086,-1.5155,-1.5203,-1.5262,-1.5326,-1.535,-1.5449,-1.5491,-1.5558,-1.5605,-1.5699,-1.5768,-1.585,-1.5904,-1.5958,-1.597,-1.5973,-1.595,-1.5918,-1.5936,-1.5996,-1.597,-1.5971,-1.5972,-1.5972,-1.5972,-1.4943,-1.497,-1.5048,-1.5109,-1.5165,-1.5222,-1.5258,-1.5323,-1.538,-1.5461,-1.5509,-1.5574,-1.5654,-1.5769,-1.582,-1.5874,-1.5895,-1.59,-1.5901,-1.5901,-1.5894,-1.5909,-1.5889,-1.589,-1.589,-1.589,-1.5891,0,-1.4895,-1.4949,-1.5004,-1.5089,-1.5137,-1.5182,-1.5254,-1.5292,-1.5347,-1.5416,-1.5474,-1.5551,-1.5619,-1.5704,-1.5779,-1.5805,-1.5832,-1.5822,-1.5821,-1.5832,-1.5871,-1.586,-1.5799,-1.5799,-1.5799,-1.5799,-1.5799,-1.5799,-1.4876,-1.4925,-1.4971,-1.5049,-1.5104,-1.5166,-1.5203,-1.5257,-1.5313,-1.5394,-1.545,-1.5504,-1.5581,-1.5661,-1.5726,-1.575,-1.5774,-1.5756,-1.5787,-1.5822,-1.583,-1.5837,-1.5828,-1.576,-1.576,-1.5744,-1.5744,-1.5744]},{"header":{"parameterUnit":"m.s-1","parameterCategory":1,"la1":30.2991,"la2":30.254,"lo1":-89.0895,"lo2":-89.0444,"dy":0.0017,"dx":0.0017,"nx":28,"ny":28,"refTime":"2024-05-11T21:00:00:Z","depth":0,"parameterNumber":3,"parameterNumberName":"V-component_of_WINDS"},"data":[0,0,0,0,0,0,0,0,0,0,0,0,0,0,0,0,0,0,0,0,0,0,0,0,0,0,0,0,0,0,0,0,0,0,0,0,0,0,0,0,0,0,0,0,0,0,0,0,0,0,0,0,0,0,0,0,0,0,6.0683,6.0684,0,6.0774,6.0775,6.0776,6.0726,6.0723,6.0721,6.0718,6.0804,6.0808,6.0813,0,0,0,0,0,0,0,0,0,0,0,0,0,6.0461,6.0465,6.0683,6.0684,6.0686,6.0774,6.0775,6.0776,6.0726,6.0723,6.072,6.0717,6.0802,6.0808,6.0813,0,0,0,0,0,0,0,0,0,0,0,0,0,6.0555,6.0466,6.0683,6.0672,6.0671,6.0773,6.0775,6.0776,6.0727,6.0723,6.0719,6.0716,6.08,6.0807,6.0814,6.093,0,0,6.0835,6.0838,0,0,0,0,0,0,0,0,6.0549,6.0563,6.0672,6.0673,6.0673,6.0735,6.0728,6.0828,6.0728,6.0706,6.0718,6.0714,6.0783,6.0791,6.0816,6.0934,6.0938,6.0835,6.084,6.0843,6.0844,0,0,0,0,0,0,0,6.0543,6.0559,6.0719,6.0674,6.0674,6.0659,6.0669,6.0746,6.0764,6.0707,6.0704,6.0716,6.0783,6.081,6.0818,6.0939,6.0835,6.0841,6.0846,6.0848,6.1156,6.116,0,0,0,0,0,0,6.0538,6.0554,6.0716,6.0722,6.0601,6.0667,6.0677,6.0718,6.0763,6.0766,6.0719,6.0713,6.08,6.081,6.0821,6.0958,6.0842,6.0849,6.0853,6.1152,6.1157,6.1161,0,0,0,0,0,0,6.0534,6.0553,6.0712,6.0637,6.0656,6.0674,6.0721,6.0722,6.0749,6.0772,6.0774,6.0744,6.0797,6.0811,6.0904,6.0961,6.0852,6.0858,6.1147,6.1153,6.1159,6.1236,0,0,0,0,0,0,6.0527,6.0552,6.0598,6.0638,6.066,6.0796,6.0725,6.0727,6.0762,6.0755,6.0796,6.0799,6.0795,6.0894,6.091,6.0968,6.0864,6.1142,6.115,6.1157,6.1228,6.1244,6.1257,0,0,0,0,0,6.052,6.0614,6.06,6.062,6.0719,6.0799,6.0812,6.0808,6.0767,6.0812,6.0826,6.0797,6.0953,6.0904,6.0922,6.0983,6.1138,6.1147,6.1156,6.1222,6.1241,6.1257,0,0,0,0,0,0,6.0577,6.0619,6.0604,6.0716,6.0755,6.0791,6.0848,6.0829,6.0878,6.087,6.0861,6.0871,6.0967,6.0984,6.0929,6.1097,6.1038,6.1052,6.1082,6.11,6.1115,6.1107,6.0869,0,0,0,0,0,6.0604,6.0668,6.0701,6.0796,6.0816,6.0829,6.0864,6.0859,6.0897,6.0913,6.0934,6.0971,6.1028,6.1065,6.1119,6.1232,6.1238,6.1282,6.1297,6.1309,6.1319,6.1378,6.1398,6.1191,6.1191,6.1191,0,0,6.0657,6.0688,6.0729,6.0808,6.0838,6.0902,6.0843,6.0914,6.0961,6.0923,6.1012,6.1029,6.1069,6.1172,6.1218,6.119,6.1378,6.132,6.133,6.1334,6.139,6.1409,6.1427,6.1197,6.1196,6.1195,0,0,6.0787,6.0819,6.0901,6.0933,6.0979,6.0987,6.1007,6.1047,6.1057,6.1147,6.112,6.1175,6.1273,6.1303,6.1331,6.1475,6.1449,6.1492,6.1567,6.1625,6.1641,6.1655,6.1704,6.1722,6.1503,6.1504,6.1504,0,6.0847,6.0946,6.0945,6.1019,6.1053,6.1025,6.1106,6.1136,6.1197,6.122,6.1188,6.1312,6.1337,6.1445,6.1481,6.1505,6.1525,6.1486,6.1639,6.1654,6.1667,6.1713,6.1732,6.1508,6.1508,6.1507,6.1507,0,6.1017,6.1086,6.1146,6.1208,6.125,6.1327,6.1335,6.1377,6.1368,6.1379,6.147,6.15,6.1559,6.1585,6.1576,6.1692,6.1673,6.164,6.1581,6.1691,6.1735,6.1753,6.1515,6.1514,6.1512,6.1511,0,0,6.1183,6.1246,6.1267,6.1295,6.1345,6.1397,6.1472,6.1532,6.1568,6.1611,6.1672,6.1757,6.1728,6.176,6.1754,6.1805,6.1915,6.1766,6.1767,6.1791,6.2042,6.2065,6.2086,6.1899,6.1903,6.1905,6.2038,0,6.1316,6.145,6.1451,6.1574,6.1636,6.1611,6.1676,6.1712,6.1725,6.1778,6.179,6.185,6.1808,6.1827,6.1877,6.1891,6.1965,6.1882,6.1953,6.1956,6.1942,6.2109,6.2133,6.2257,6.2055,6.2058,6.206,0,6.1487,6.1539,6.1668,6.1709,6.1735,6.1794,6.1849,6.1901,6.1941,6.1947,6.1984,6.197,6.2045,6.1986,6.2087,6.203,6.206,6.2071,6.2076,6.208,6.2013,6.2115,6.2296,6.2314,6.2088,6.2085,6.2084,0,6.1593,6.1695,6.1785,6.181,6.186,6.1902,6.1925,6.1962,6.1998,6.2045,6.2068,6.2123,6.2153,6.2194,6.2196,6.2153,6.2297,6.2238,6.2301,6.2301,6.233,6.2328,6.2516,6.2354,6.2354,6.2353,6.2353,0,6.1739,6.1819,6.1834,6.1889,6.1977,6.1977,6.2063,6.2082,6.2115,6.2172,6.2153,6.2206,6.2206,6.2259,6.2261,6.2343,6.2357,6.2361,6.236,6.2362,6.2361,6.2379,6.237,6.2358,6.2357,6.2356,6.2355,0,6.1871,6.1885,6.1982,6.2023,6.2035,6.2097,6.2131,6.2182,6.2194,6.2266,6.2283,6.23,6.2362,6.2369,6.244,6.2441,6.254,6.2531,6.2527,6.2525,6.2587,6.258,6.2791,6.2818,6.264,6.2642,6.2643,0,6.1962,6.2023,6.2072,6.211,6.2135,6.2196,6.2234,6.2236,6.2275,6.2327,6.2371,6.2433,6.2481,6.2581,6.2598,6.2653,6.2643,6.2714,6.2651,6.2651,6.2642,6.2637,6.2642,6.2725,6.2727,6.2728,6.273,0,6.2122,6.2126,6.2182,6.2241,6.2287,6.2332,6.2375,6.2406,6.2414,6.2459,6.2523,6.2561,6.2636,6.2695,6.2749,6.277,6.275,6.275,6.2767,6.2768,6.2762,6.2764,6.2558,6.2744,6.2743,6.2742,6.2741,6.274,6.2235,6.2288,6.233,6.2393,6.2426,6.2467,6.2517,6.2536,6.2591,6.2653,6.2651,6.2722,6.276,6.283,6.2855,6.2909,6.2885,6.291,6.2916,6.2922,6.2927,6.2756,6.2919,6.2919,6.2918,6.2918,6.2918,0,6.2391,6.2418,6.2476,6.2538,6.2587,6.2568,6.2614,6.2656,6.2719,6.2758,6.2807,6.288,6.2939,6.2962,6.3018,6.3057,6.3049,6.3071,6.3067,6.3072,6.2946,6.2925,6.3076,6.3076,6.3076,6.3076,6.3076,6.3076,6.2478,6.2567,6.2576,6.2679,6.2705,6.2776,6.2804,6.284,6.2871,6.2955,6.3004,6.302,6.3052,6.3111,6.3163,6.3168,6.3188,6.3214,6.3215,6.3097,6.308,6.3065,6.3045,6.3219,6.3219,6.3335,6.3336,6.3337]}]]